Location: Risskov
(56.1972°N, 10.2480°E)
Time: 00:16:06
(UTC+00:00)

RESURS DK-1 - Pass Details

Date: 05 July 2020
Orbit: 556 x 562 km, 69.9° (Epoch: 03 August)

Event Time Altitude Azimuth Distance (km) Brightness Sun altitude
Rises 22:31:31 0° 323° (NW) 2,756 7.2 -10.4°
Reaches altitude 10° 22:33:51 10° 332° (NNW) 1,858 6.4 -10.4°
Maximum altitude 22:37:45 38° 41° (NE) 865 3.7 -10.5°
Drops below altitude 10° 22:41:38 10° 111° (ESE) 1,851 4.7 -10.6°
Enters shadow 22:43:21 - 118° (ESE) 2,510 5.3 -10.7°
